Regional Weather Roundup
Issued by NWS

Home | Current Version | Previous Version | Text Only | Print | Product List | Glossary On
Versions: 1 2 3 4 5 6 7 8 9 10 11 12 13 14 15 16 17 18 19 20 21 22 23 24 25 26 27 28 29 30 31 32 33 34 35 36 37 38 39 40 41 42 43 44 45 46 47 48 49 50
000
ASCA44 KEWX 250320
RWRMX

LATIN AMERICA AND CARIBBEAN REGIONAL WEATHER ROUNDUP
NATIONAL WEATHER SERVICE AUSTIN/SAN ANTONIO TX
1000 PM CDT SAT SEP 24 2016

NOTE: "FAIR" INDICATED FEW OR NO CLOUDS BELOW 12,000 FEET WITH NO
SIGNIFICANT WEATHER AND/OR OBSTRUCTIONS TO VISIBILITY.

BAJA CALIFORNIA

CITY           SKY/WX    TMP DP  RH WIND       PRES   REMARKS
LA PAZ         PTCLDY    79  68  69 S6        29.92R
MEXICALI       CLEAR     84  32  15 NW5       29.91R
S.J. DEL CABO  CLEAR     77  70  78 NW7       29.92R
TIJUANA        CLEAR     70  48  46 CALM      30.00R

NORTHWESTERN MEXICO

CITY           SKY/WX    TMP DP  RH WIND       PRES   REMARKS
CULIACAN       TSTM      73  72  94 CALM      29.90S
DURANGO        CLOUDY    59  59 100 NE3       30.24R
GUAYMAS          N/A    N/A N/A N/A MISG        N/A
HERMOSILLO     CLEAR     82  63  51 SW7       29.91R
CD. JUAREZ     PTCLDY    77  45  31 NW7       29.96R
LOS MOCHIS     PTCLDY    82  72  69 W6        29.88S

NORTHEASTERN MEXICO

CITY           SKY/WX    TMP DP  RH WIND       PRES   REMARKS
CHIHUAHUA      MOCLDY    70  55  60 CALM      30.05R
MONCLOVA         N/A    N/A N/A N/A MISG        N/A
MONTERREY      MOCLDY    82  68  61 E7        29.88R
REYNOSA          N/A    N/A N/A N/A MISG        N/A
SALTILLO       MOCLDY    64  57  77 CALM      30.16R
TORREON        MOCLDY    77  66  69 SW9       30.03R
CD. VICTORIA     N/A    N/A N/A N/A MISG        N/A

WESTERN MEXICO

CITY           SKY/WX    TMP DP  RH WIND       PRES   REMARKS
AGUASCALIENTES MOCLDY    63  55  77 NE7       30.24S
COLIMA           N/A    N/A N/A N/A MISG        N/A
DEL BAJIO      MOCLDY    64  61  88 CALM      30.26R
GUADALAJARA    MOCLDY    66  57  72 S12G23    30.19R
MAZATLAN       PTCLDY    77  75  94 N5        29.90R
P. VALLARTA    MOCLDY    77  73  88 N7        29.91R
URUAPAN        MOCLDY    64  63  94 CALM      30.18R
ZACATECAS      CLEAR     55  52  88 CALM      30.28R

CENTRAL MEXICO

CITY           SKY/WX    TMP DP  RH WIND       PRES   REMARKS
CUERNAVACA       N/A    N/A N/A N/A MISG        N/A
MEXICO CITY    CLOUDY    63  54  72 SW9       30.32R
MORELIA        CLOUDY    63  61  94 SE5       30.21R
POZA RICA        N/A    N/A N/A N/A MISG        N/A
QUERETARO      CLOUDY    63  61  94 CALM      30.28R
S. LUIS POTOSI MOCLDY    66  54  63 S5        30.21R
TAMPICO        PTCLDY    82  73  74 SE12      29.90R
TOLUCA         MOCLDY    57  52  82 N5        30.38R

SOUTHERN MEXICO

CITY           SKY/WX    TMP DP  RH WIND       PRES   REMARKS
ACAPULCO       MOCLDY    81  77  89 S2        29.89R
B. DE HUATULCO   N/A    N/A N/A N/A MISG        N/A
P. ESCONDIDO     N/A    N/A N/A N/A MISG        N/A
VERACRUZ       CLOUDY    79  75  89 NW3       29.92R
ZIHUATANEJO      N/A    N/A N/A N/A MISG        N/A

YUCATAN PENINSULA

CITY           SKY/WX    TMP DP  RH WIND       PRES   REMARKS
CAMPECHE         N/A    N/A N/A N/A MISG        N/A
CANCUN         LGT RAIN  79  77  94 NW6       29.99R
CHETUMAL       PTCLDY    82  77  83 CALM      29.95R HX  91
CD. DEL CARMEN   N/A    N/A N/A N/A MISG        N/A
COZUMEL        MOCLDY    82  79  89 CALM      29.98R HX  93
MERIDA         MOCLDY    77  75  94 SE6       29.99R
MINATITLAN       N/A    N/A N/A N/A MISG        N/A
TAPACHULA      CLOUDY    75  73  94 CALM      29.87S
TUX. GUTIERREZ LGT RAIN  70  70 100 CALM      29.99R
VILLAHERMOSA   TSTM      79  77  94 SE5       29.93R

CENTRAL AMERICA

CITY           SKY/WX    TMP DP  RH WIND       PRES   REMARKS
MANAGUA        TSTM      75  72  88 CALM      29.89S

CARIBBEAN

CITY           SKY/WX    TMP DP  RH WIND       PRES   REMARKS
ARUBA          PTCLDY    84  79  84 E18G31    29.89S HX  96
KINGSTON       PTCLDY    84  75  74 VRB2      29.94S HX  92
NASSAU         TSTM      79  77  94 CALM      30.06R
SAN JUAN       PTCLDY    82  77  83 CALM      30.01F HX  91
SANTO DOMINGO  PTCLDY    79  75  89 CALM      29.94
ST. CROIX      CLEAR     77  75  94 N5        30.01F
ST. MAARTEN    PTCLDY    84  77  79 E9        30.00S HX  94
ST. THOMAS     CLEAR     82  75  78 E3        30.00F

$$





USA.gov is the U.S. government's official web portal to all federal, state and local government web resources and services.